TimePST,TemperatureF,Dew PointF,Humidity,Sea Level PressureIn,VisibilityMPH,Wind Direction,Wind SpeedMPH,Gust SpeedMPH,PrecipitationIn,Events,Conditions,WindDirDegrees,DateUTC
12:53 AM,46.0,42.1,86,30.43,10.0,Calm,Calm,-,N/A,,Overcast,0,2012-12-10 08:53:00
1:53 AM,45.0,42.1,90,30.43,10.0,Calm,Calm,-,N/A,,Overcast,0,2012-12-10 09:53:00
2:20 AM,46.4,42.8,87,30.43,10.0,Calm,Calm,-,N/A,,Overcast,0,2012-12-10 10:20:00
2:53 AM,46.0,43.0,89,30.44,9.0,Calm,Calm,-,N/A,,Overcast,0,2012-12-10 10:53:00
3:53 AM,45.0,43.0,93,30.42,10.0,Calm,Calm,-,N/A,,Overcast,0,2012-12-10 11:53:00
4:53 AM,45.0,42.1,90,30.41,10.0,Calm,Calm,-,N/A,,Overcast,0,2012-12-10 12:53:00
5:53 AM,45.0,43.0,93,30.42,10.0,Calm,Calm,-,N/A,,Overcast,0,2012-12-10 13:53:00
6:53 AM,45.0,43.0,93,30.44,10.0,Calm,Calm,-,N/A,,Overcast,0,2012-12-10 14:53:00
7:53 AM,45.0,43.0,93,30.44,9.0,Calm,Calm,-,N/A,,Overcast,0,2012-12-10 15:53:00
8:29 AM,44.6,42.8,93,30.43,6.0,Calm,Calm,-,N/A,,Overcast,0,2012-12-10 16:29:00
8:53 AM,46.0,43.0,89,30.45,7.0,Calm,Calm,-,N/A,,Overcast,0,2012-12-10 16:53:00
9:53 AM,46.9,43.0,86,30.44,9.0,Calm,Calm,-,N/A,,Overcast,0,2012-12-10 17:53:00
10:53 AM,48.9,44.1,83,30.43,10.0,Calm,Calm,-,N/A,,Overcast,0,2012-12-10 18:53:00
11:53 AM,50.0,44.1,80,30.41,10.0,Calm,Calm,-,N/A,,Overcast,0,2012-12-10 19:53:00
12:53 PM,50.0,44.1,80,30.39,10.0,North,4.6,-,N/A,,Overcast,360,2012-12-10 20:53:00
1:53 PM,50.0,44.1,80,30.37,10.0,Calm,Calm,-,N/A,,Overcast,0,2012-12-10 21:53:00
2:53 PM,50.0,45.0,83,30.36,10.0,West,3.5,-,N/A,,Overcast,270,2012-12-10 22:53:00
3:53 PM,50.0,45.0,83,30.35,10.0,Calm,Calm,-,N/A,,Overcast,0,2012-12-10 23:53:00
4:53 PM,50.0,44.1,80,30.34,10.0,Calm,Calm,-,N/A,,Overcast,0,2012-12-11 00:53:00
5:53 PM,48.9,44.1,83,30.32,10.0,Calm,Calm,-,N/A,,Overcast,0,2012-12-11 01:53:00
6:53 PM,48.9,45.0,86,30.30,10.0,Calm,Calm,-,N/A,,Overcast,0,2012-12-11 02:53:00
7:53 PM,48.0,44.1,86,30.28,10.0,Calm,Calm,-,N/A,,Overcast,0,2012-12-11 03:53:00
8:37 PM,48.2,44.6,87,30.26,10.0,Calm,Calm,-,N/A,,Overcast,0,2012-12-11 04:37:00
8:53 PM,48.0,45.0,89,30.26,10.0,Calm,Calm,-,N/A,,Overcast,0,2012-12-11 04:53:00
9:53 PM,48.0,44.1,86,30.24,10.0,Calm,Calm,-,N/A,,Overcast,0,2012-12-11 05:53:00
10:53 PM,48.0,45.0,89,30.22,9.0,Calm,Calm,-,N/A,,Overcast,0,2012-12-11 06:53:00
11:53 PM,46.9,45.0,93,30.19,9.0,Calm,Calm,-,N/A,,Overcast,0,2012-12-11 07:53:00